| time (UTC) | temp F | wind direction | speed MPH | gust MPH | rain 1hr in | rain 24hr in | rain mn in | humidity % | barometer mb |
| 20260901190019 | 58 | 121 | 9.0 | 20.0 | 0.00 | 0.01 | 0.01 | 79 | 1017.4 |
| 20260901184516 | 58 | 112 | 11.0 | 20.0 | 0.00 | 0.01 | 0.01 | 77 | 1017.6 |
| 20260901183015 | 59 | 99 | 9.0 | 19.0 | 0.00 | 0.01 | 0.01 | 77 | 1017.5 |
| 20260901181519 | 59 | 98 | 9.0 | 16.0 | 0.00 | 0.01 | 0.01 | 76 | 1017.7 |
| 20260901180015 | 59 | 115 | 11.0 | 18.0 | 0.00 | 0.01 | 0.01 | 75 | 1017.8 |
| 20260901174513 | 60 | 101 | 9.0 | 19.0 | 0.00 | 0.01 | 0.01 | 75 | 1017.8 |
| 20260901173014 | 60 | 115 | 9.0 | 16.0 | 0.00 | 0.01 | 0.01 | 75 | 1017.5 |
| 20260901171512 | 60 | 104 | 8.0 | 15.0 | 0.00 | 0.01 | 0.01 | 75 | 1017.3 |
| 20260901170015 | 60 | 95 | 6.0 | 15.0 | 0.00 | 0.01 | 0.01 | 75 | 1017.4 |
| 20260901164511 | 60 | 89 | 5.0 | 11.0 | 0.00 | 0.01 | 0.01 | 75 | 1017.2 |
| 20260901163011 | 60 | 104 | 3.0 | 14.0 | 0.00 | 0.01 | 0.01 | 75 | 1017.1 |
| 20260901161522 | 60 | 334 | 0.0 | 4.0 | 0.00 | 0.01 | 0.01 | 75 | 1016.9 |
| 20260901160017 | 60 | 334 | 0.0 | 5.0 | 0.00 | 0.01 | 0.01 | 74 | 1016.9 |
| 20260901154509 | 61 | 332 | 1.0 | 5.0 | 0.00 | 0.01 | 0.01 | 73 | 1016.8 |
| 20260901153008 | 62 | 333 | 0.0 | 4.0 | 0.00 | 0.01 | 0.01 | 69 | 1016.6 |
| 20260901151508 | 63 | 253 | 0.0 | 10.0 | 0.00 | 0.01 | 0.01 | 67 | 1016.5 |
| 20260901150008 | 64 | 179 | 0.0 | 7.0 | 0.00 | 0.01 | 0.01 | 66 | 1016.3 |
| 20260901144507 | 64 | 190 | 0.0 | 8.0 | 0.00 | 0.01 | 0.01 | 65 | 1016.2 |
| 20260901143007 | 64 | 134 | 1.0 | 8.0 | 0.00 | 0.01 | 0.01 | 67 | 1016.2 |
| 20260901141507 | 63 | 123 | 0.0 | 7.0 | 0.00 | 0.01 | 0.01 | 68 | 1016.3 |
| 20260901140006 | 63 | 109 | 0.0 | 7.0 | 0.00 | 0.01 | 0.01 | 66 | 1016.4 |
| 20260901134505 | 65 | 122 | 1.0 | 8.0 | 0.00 | 0.01 | 0.01 | 62 | 1016.3 |
| 20260901133003 | 66 | 171 | 0.0 | 0.0 | 0.00 | 0.01 | 0.01 | 63 | 1016.3 |
| 20260901131501 | 64 | 108 | 0.0 | 8.0 | 0.00 | 0.01 | 0.01 | 65 | 1016.3 |
| 20260901130004 | 64 | 169 | 1.0 | 10.0 | 0.00 | 0.01 | 0.01 | 67 | 1016.3 |
| 20260901124502 | 64 | 136 | 0.0 | 7.0 | 0.00 | 0.01 | 0.01 | 67 | 1016.5 |
| 20260901123059 | 65 | 169 | 0.0 | 7.0 | 0.00 | 0.01 | 0.01 | 63 | 1016.6 |
| 20260901121600 | 64 | 154 | 2.0 | 9.0 | 0.00 | 0.01 | 0.01 | 66 | 1016.8 |
| 20260901114554 | 64 | 165 | 0.0 | 9.0 | 0.00 | 0.01 | 0.01 | 67 | 1017.2 |
| 20260901113111 | 65 | 175 | 0.0 | 8.0 | 0.00 | 0.01 | 0.01 | 65 | 1017.6 |
| 20260901111549 | 64 | 123 | 0.0 | 7.0 | 0.00 | 0.01 | 0.01 | 65 | 1018.1 |
| 20260901110103 | 64 | 190 | 2.0 | 8.0 | 0.00 | 0.01 | 0.01 | 65 | 1018.1 |
| 20260901104548 | 64 | 181 | 0.0 | 8.0 | 0.00 | 0.01 | 0.01 | 65 | 1018.5 |
| 20260901103049 | 63 | 117 | 1.0 | 9.0 | 0.00 | 0.01 | 0.01 | 64 | 1018.7 |
| 20260901101608 | 63 | 240 | 0.0 | 11.0 | 0.00 | 0.01 | 0.01 | 65 | 1019.0 |
| 20260901094544 | 62 | 127 | 0.0 | 5.0 | 0.00 | 0.01 | 0.01 | 72 | 1019.7 |
| 20260901093039 | 61 | 126 | 0.0 | 4.0 | 0.00 | 0.01 | 0.01 | 73 | 1020.2 |
| 20260901091517 | 62 | 126 | 0.0 | 4.0 | 0.00 | 0.01 | 0.01 | 69 | 1020.6 |
| 20260901090015 | 62 | 229 | 0.0 | 7.0 | 0.00 | 0.01 | 0.01 | 72 | 1020.8 |
| 20260901084526 | 61 | 130 | 1.0 | 11.0 | 0.00 | 0.01 | 0.01 | 71 | 1021.1 |
| 20260901083012 | 61 | 119 | 1.0 | 11.0 | 0.00 | 0.01 | 0.01 | 72 | 1021.2 |
| 20260901081510 | 61 | 179 | 1.0 | 6.0 | 0.00 | 0.01 | 0.01 | 72 | 1021.1 |
| 20260901080010 | 60 | 181 | 4.0 | 10.0 | 0.00 | 0.01 | 0.01 | 74 | 1021.1 |
| 20260901074508 | 60 | 180 | 3.0 | 10.0 | 0.00 | 0.01 | 0.01 | 75 | 1021.2 |
| 20260901073008 | 59 | 180 | 0.0 | 7.0 | 0.00 | 0.01 | 0.01 | 76 | 1021.4 |
| 20260901071504 | 59 | 182 | 1.0 | 5.0 | 0.00 | 0.01 | 0.01 | 76 | 1021.3 |
| 20260901070001 | 59 | 184 | 2.0 | 9.0 | 0.00 | 0.01 | 0.01 | 78 | 1021.5 |
| 20260901064557 | 58 | 157 | 0.0 | 8.0 | 0.00 | 0.01 | 0.01 | 81 | 1021.5 |
| 20260901063056 | 58 | 134 | 0.0 | 0.0 | 0.00 | 0.01 | 0.01 | 81 | 1021.6 |
| 20260901061558 | 56 | 134 | 1.0 | 5.0 | 0.00 | 0.01 | 0.01 | 85 | 1021.8 |
| 20260901060053 | 56 | 130 | 0.0 | 5.0 | 0.00 | 0.01 | 0.01 | 84 | 1021.8 |
| 20260901054551 | 56 | 130 | 1.0 | 4.0 | 0.00 | 0.01 | 0.01 | 84 | 1021.6 |
| 20260901053105 | 56 | 130 | 0.0 | 5.0 | 0.00 | 0.01 | 0.01 | 86 | 1021.3 |
| 20260901051548 | 54 | 126 | 1.0 | 4.0 | 0.00 | 0.01 | 0.01 | 88 | 1021.1 |
| 20260901050044 | 53 | 126 | 0.0 | 4.0 | 0.00 | 0.01 | 0.01 | 89 | 1020.6 |
| 20260901044609 | 53 | 125 | 0.0 | 2.0 | 0.00 | 0.02 | 0.01 | 89 | 1020.1 |
| 20260901043042 | 53 | 125 | 0.0 | 2.0 | 0.00 | 0.02 | 0.01 | 89 | 1020.0 |
| 20260901041539 | 52 | 126 | 0.0 | 2.0 | 0.00 | 0.02 | 0.01 | 89 | 1019.9 |
| 20260901040037 | 53 | 125 | 0.0 | 0.0 | 0.00 | 0.02 | 0.01 | 89 | 1019.6 |
| 20260901034543 | 53 | 126 | 1.0 | 4.0 | 0.00 | 0.04 | 0.01 | 90 | 1019.4 |
| 20260901033041 | 53 | 126 | 0.0 | 7.0 | 0.00 | 0.04 | 0.01 | 89 | 1019.4 |
| 20260901031539 | 53 | 128 | 0.0 | 5.0 | 0.00 | 0.04 | 0.01 | 90 | 1019.1 |
| 20260901030131 | 53 | 128 | 0.0 | 3.0 | 0.00 | 0.04 | 0.01 | 90 | 1019.0 |
| 20260901024530 | 53 | 128 | 0.0 | 0.0 | 0.00 | 0.05 | 0.01 | 90 | 1019.0 |
| 20260901023028 | 53 | 128 | 0.0 | 3.0 | 0.00 | 0.05 | 0.01 | 90 | 1018.9 |
| 20260901021536 | 54 | 129 | 3.0 | 11.0 | 0.00 | 0.05 | 0.01 | 90 | 1018.5 |
| 20260901020049 | 53 | 155 | 0.0 | 7.0 | 0.00 | 0.05 | 0.01 | 91 | 1018.5 |
| 20260901014525 | 54 | 173 | 0.0 | 0.0 | 0.00 | 0.06 | 0.01 | 91 | 1018.4 |
| 20260901013025 | 53 | 173 | 0.0 | 4.0 | 0.00 | 0.06 | 0.01 | 92 | 1018.2 |
| 20260901011535 | 53 | 173 | 0.0 | 0.0 | 0.00 | 0.06 | 0.01 | 92 | 1018.1 |
| 20260901010023 | 54 | 173 | 0.0 | 4.0 | 0.00 | 0.06 | 0.01 | 92 | 1018.1 |
| 20260901004522 | 53 | 173 | 2.0 | 7.0 | 0.00 | 0.08 | 0.01 | 92 | 1018.2 |
| 20260901003022 | 54 | 177 | 0.0 | 0.0 | 0.00 | 0.08 | 0.01 | 92 | 1018.1 |
| 20260901001526 | 54 | 177 | 0.0 | 4.0 | 0.00 | 0.08 | 0.01 | 92 | 1017.8 |
| 20260901000022 | 54 | 177 | 0.0 | 4.0 | 0.00 | 0.08 | 0.01 | 92 | 1017.9 |
| 20260831234520 | 54 | 177 | 0.0 | 7.0 | 0.00 | 0.08 | 0.01 | 92 | 1018.0 |
| 20260831233033 | 53 | 177 | 0.0 | 4.0 | 0.00 | 0.08 | 0.01 | 92 | 1018.1 |
| 20260831231517 | 54 | 177 | 0.0 | 0.0 | 0.00 | 0.08 | 0.01 | 92 | 1018.1 |
| 20260831230017 | 54 | 177 | 0.0 | 2.0 | 0.00 | 0.08 | 0.01 | 92 | 1018.2 |
| 20260831224515 | 54 | 177 | 0.0 | 0.0 | 0.01 | 0.08 | 0.01 | 92 | 1018.3 |
| 20260831223014 | 54 | 177 | 0.0 | 3.0 | 0.01 | 0.08 | 0.01 | 92 | 1018.4 |
| 20260831221514 | 54 | 177 | 0.0 | 3.0 | 0.01 | 0.08 | 0.01 | 92 | 1018.5 |
| 20260831220010 | 55 | 177 | 0.0 | 2.0 | 0.01 | 0.08 | 0.01 | 91 | 1018.5 |
| 20260831214515 | 55 | 177 | 0.0 | 3.0 | 0.00 | 0.07 | 0.00 | 90 | 1018.8 |
| 20260831213006 | 55 | 177 | 0.0 | 11.0 | 0.00 | 0.07 | 0.00 | 90 | 1018.9 |
| 20260831211504 | 56 | 108 | 0.0 | 4.0 | 0.00 | 0.07 | 0.00 | 89 | 1019.0 |
| 20260831210045 | 56 | 108 | 2.0 | 7.0 | 0.00 | 0.07 | 0.00 | 89 | 1018.9 |
| 20260831204535 | 56 | 107 | 0.0 | 2.0 | 0.00 | 0.07 | 0.07 | 89 | 1019.1 |
| 20260831203035 | 56 | 107 | 0.0 | 0.0 | 0.00 | 0.07 | 0.07 | 89 | 1019.2 |
| 20260831201637 | 56 | 107 | 0.0 | 1.0 | 0.00 | 0.07 | 0.07 | 89 | 1019.1 |
| 20260831200040 | 56 | 107 | 0.0 | 1.0 | 0.00 | 0.07 | 0.07 | 89 | 1019.1 |
| 20260831194522 | 56 | 107 | 1.0 | 7.0 | 0.00 | 0.07 | 0.07 | 89 | 1019.1 |
| 20260831193010 | 55 | 107 | 0.0 | 7.0 | 0.00 | 0.07 | 0.07 | 89 | 1019.1 |
| 20260831191511 | 55 | 106 | 0.0 | 4.0 | 0.00 | 0.07 | 0.07 | 88 | 1019.0 |